TimeEDT,TemperatureF,Dew PointF,Humidity,Sea Level PressureIn,VisibilityMPH,Wind Direction,Wind SpeedMPH,Gust SpeedMPH,PrecipitationIn,Events,Conditions,WindDirDegrees,DateUTC
12:15 AM,43.7,40.5,88,30.28,10.0,Calm,Calm,-,N/A,,Clear,0,2013-03-11 04:15:00
12:35 AM,44.1,41.0,89,30.28,10.0,Calm,Calm,-,N/A,,Clear,0,2013-03-11 04:35:00
12:55 AM,40.6,37.8,89,30.29,10.0,Calm,Calm,-,N/A,,Clear,0,2013-03-11 04:55:00
1:15 AM,37.6,35.2,91,30.28,7.0,Calm,Calm,-,N/A,,Clear,0,2013-03-11 05:15:00
1:35 AM,37.6,35.2,91,30.27,7.0,Calm,Calm,-,N/A,,Clear,0,2013-03-11 05:35:00
2:35 AM,38.3,36.1,92,30.26,7.0,Calm,Calm,-,N/A,,Clear,0,2013-03-11 06:35:00
3:15 AM,38.5,36.5,93,30.24,5.0,Calm,Calm,-,N/A,,Clear,0,2013-03-11 07:15:00
3:35 AM,38.8,36.9,93,30.24,5.0,South,3.5,-,N/A,,Clear,180,2013-03-11 07:35:00
3:55 AM,39.2,37.4,93,30.23,5.0,Calm,Calm,-,N/A,,Clear,0,2013-03-11 07:55:00
4:15 AM,36.5,34.2,91,30.22,7.0,Calm,Calm,-,N/A,,Clear,0,2013-03-11 08:15:00
4:35 AM,37.0,35.2,93,30.22,4.0,Calm,Calm,-,N/A,,Clear,0,2013-03-11 08:35:00
4:55 AM,36.5,34.7,93,30.21,2.5,SE,3.5,-,N/A,,Clear,130,2013-03-11 08:55:00
5:15 AM,38.1,36.3,93,30.21,1.2,Calm,Calm,-,N/A,,Mist,0,2013-03-11 09:15:00
5:35 AM,36.3,34.2,92,30.21,2.0,Calm,Calm,-,N/A,,Clear,0,2013-03-11 09:35:00
5:55 AM,36.5,34.7,93,30.21,10.0,Calm,Calm,-,N/A,,Clear,0,2013-03-11 09:55:00
6:15 AM,37.0,35.1,93,30.21,10.0,Calm,Calm,-,N/A,,Clear,0,2013-03-11 10:15:00
6:35 AM,36.7,34.5,92,30.21,10.0,Calm,Calm,-,N/A,,Clear,0,2013-03-11 10:35:00
6:55 AM,36.9,34.9,93,30.20,5.0,Calm,Calm,-,N/A,,Clear,0,2013-03-11 10:55:00
7:15 AM,37.4,35.4,93,30.20,5.0,Calm,Calm,-,N/A,,Clear,0,2013-03-11 11:15:00
7:35 AM,37.9,36.1,93,30.21,5.0,Calm,Calm,-,N/A,,Clear,0,2013-03-11 11:35:00
7:55 AM,37.6,35.6,93,30.22,7.0,Calm,Calm,-,N/A,,Clear,0,2013-03-11 11:55:00
8:15 AM,40.1,38.3,93,30.22,7.0,Calm,Calm,-,N/A,,Clear,0,2013-03-11 12:15:00
8:35 AM,44.6,42.4,92,30.22,10.0,SE,3.5,-,N/A,,Clear,140,2013-03-11 12:35:00
8:55 AM,45.1,43.0,92,30.21,10.0,SE,4.6,-,N/A,,Clear,140,2013-03-11 12:55:00
9:15 AM,47.1,44.6,91,30.21,10.0,SE,4.6,-,N/A,,Clear,130,2013-03-11 13:15:00
9:35 AM,50.0,47.1,90,30.21,10.0,SSE,4.6,-,N/A,,Clear,150,2013-03-11 13:35:00
9:55 AM,50.5,47.1,88,30.21,10.0,SE,4.6,-,N/A,,Clear,140,2013-03-11 13:55:00
10:15 AM,53.2,48.2,83,30.19,10.0,SE,8.1,-,N/A,,Clear,130,2013-03-11 14:15:00
10:35 AM,56.1,49.5,78,30.19,10.0,ESE,5.8,-,N/A,,Clear,120,2013-03-11 14:35:00
10:55 AM,58.6,50.0,73,30.18,10.0,SSE,11.5,-,N/A,,Clear,160,2013-03-11 14:55:00
11:15 AM,60.1,50.0,69,30.17,10.0,SE,8.1,-,N/A,,Clear,140,2013-03-11 15:15:00
11:35 AM,62.6,51.3,66,30.16,10.0,SSE,8.1,-,N/A,,Clear,150,2013-03-11 15:35:00
11:55 AM,65.3,50.7,59,30.16,10.0,SE,10.4,-,N/A,,Clear,140,2013-03-11 15:55:00
12:15 PM,65.3,49.3,56,30.16,10.0,South,9.2,-,N/A,,Clear,180,2013-03-11 16:15:00
12:35 PM,65.3,48.2,54,30.15,10.0,South,10.4,16.1,N/A,,Clear,170,2013-03-11 16:35:00
12:55 PM,66.2,47.1,50,30.14,10.0,SSW,5.8,17.3,N/A,,Scattered Clouds,200,2013-03-11 16:55:00
1:15 PM,67.5,47.8,49,30.14,10.0,South,12.7,19.6,N/A,,Scattered Clouds,170,2013-03-11 17:15:00
1:35 PM,70.0,49.3,48,30.13,10.0,SSW,9.2,18.4,N/A,,Scattered Clouds,200,2013-03-11 17:35:00
1:55 PM,66.4,46.4,49,30.11,10.0,South,11.5,18.4,N/A,,Mostly Cloudy,170,2013-03-11 17:55:00
2:15 PM,68.9,48.4,48,30.11,10.0,SSE,12.7,16.1,N/A,,Mostly Cloudy,160,2013-03-11 18:15:00
2:35 PM,69.6,48.2,46,30.10,10.0,South,13.8,20.7,N/A,,Mostly Cloudy,170,2013-03-11 18:35:00
2:55 PM,68.0,47.7,48,30.09,10.0,South,10.4,16.1,N/A,,Scattered Clouds,170,2013-03-11 18:55:00
3:15 PM,67.6,48.0,49,30.09,10.0,SSE,9.2,-,N/A,,Mostly Cloudy,160,2013-03-11 19:15:00
3:35 PM,69.3,49.8,50,30.08,10.0,SSE,15.0,19.6,N/A,,Mostly Cloudy,160,2013-03-11 19:35:00
3:55 PM,70.0,49.8,49,30.06,10.0,South,13.8,18.4,N/A,,Mostly Cloudy,170,2013-03-11 19:55:00
4:15 PM,69.1,48.9,49,30.06,10.0,SSE,15.0,-,N/A,,Scattered Clouds,150,2013-03-11 20:15:00
4:35 PM,70.0,49.5,48,30.04,10.0,SSE,12.7,-,N/A,,Scattered Clouds,150,2013-03-11 20:35:00
4:55 PM,65.8,48.2,53,30.03,10.0,SSE,9.2,-,N/A,,Scattered Clouds,150,2013-03-11 20:55:00
5:15 PM,66.0,49.1,54,30.03,10.0,SSE,10.4,-,N/A,,Scattered Clouds,160,2013-03-11 21:15:00
5:35 PM,65.8,48.9,54,30.04,10.0,SE,9.2,-,N/A,,Mostly Cloudy,140,2013-03-11 21:35:00
5:55 PM,65.3,49.1,56,30.04,10.0,SSE,6.9,-,N/A,,Scattered Clouds,150,2013-03-11 21:55:00
6:15 PM,65.3,49.5,57,30.04,10.0,SSE,8.1,-,N/A,,Scattered Clouds,150,2013-03-11 22:15:00
6:35 PM,65.3,50.2,58,30.05,10.0,SSE,8.1,17.3,N/A,,Scattered Clouds,150,2013-03-11 22:35:00
6:55 PM,65.3,50.9,60,30.05,10.0,SE,8.1,16.1,N/A,,Scattered Clouds,140,2013-03-11 22:55:00
7:15 PM,62.6,50.0,63,30.04,10.0,SE,9.2,-,N/A,,Scattered Clouds,140,2013-03-11 23:15:00
7:35 PM,60.3,48.4,65,30.04,10.0,SE,9.2,-,N/A,,Clear,140,2013-03-11 23:35:00
7:55 PM,60.1,49.1,67,30.02,10.0,SE,9.2,-,N/A,,Clear,140,2013-03-11 23:55:00
8:15 PM,60.1,49.5,68,30.02,10.0,SE,9.2,-,N/A,,Clear,140,2013-03-12 00:15:00
8:35 PM,60.1,49.8,69,30.02,10.0,SE,11.5,19.6,N/A,,Clear,140,2013-03-12 00:35:00
8:55 PM,58.6,48.9,70,30.03,10.0,SSE,10.4,-,N/A,,Clear,150,2013-03-12 00:55:00
9:15 PM,58.1,48.6,71,30.03,10.0,SSE,8.1,-,N/A,,Clear,150,2013-03-12 01:15:00
9:35 PM,57.9,48.9,72,30.03,10.0,SSE,6.9,-,N/A,,Clear,160,2013-03-12 01:35:00
9:55 PM,57.9,49.1,72,30.03,10.0,SSE,8.1,-,N/A,,Scattered Clouds,160,2013-03-12 01:55:00
10:15 PM,58.5,49.5,72,30.02,10.0,SSE,9.2,16.1,N/A,,Overcast,150,2013-03-12 02:15:00
10:35 PM,59.2,49.8,71,30.02,10.0,SSE,10.4,-,N/A,,Overcast,150,2013-03-12 02:35:00
10:55 PM,60.1,50.9,72,30.02,10.0,SSE,9.2,-,N/A,,Overcast,150,2013-03-12 02:55:00
11:15 PM,59.2,50.4,73,30.01,10.0,SSE,6.9,-,N/A,,Overcast,150,2013-03-12 03:15:00
11:35 PM,58.1,50.2,75,30.02,10.0,SSE,6.9,-,N/A,,Overcast,160,2013-03-12 03:35:00
11:55 PM,58.3,50.0,74,30.01,10.0,SSE,5.8,-,N/A,,Overcast,150,2013-03-12 03:55:00